This is the latest recevied weather packets stored in our database for station/object N5COP-13. If no packets are shown the sender has not sent any weather packets the latest 10 day(s).
| Time | Temp. | Humidity | Pressure | Rain* | Wind** | Luminosity | Snow |
|---|---|---|---|---|---|---|---|
| 1778158320 | 5° C | 92% | 1022.1 hPa | 0 mm | - | 40 W/m² | - |
| 1778158016 | 4.44° C | 92% | 1022.2 hPa | 0 mm | - | 37 W/m² | - |
| 1778157714 | 4.44° C | 92% | 1022 hPa | 0 mm | - | 37 W/m² | - |
| 1778157412 | 4.44° C | 92% | 1022 hPa | 0 mm | - | 30 W/m² | - |
| 1778157109 | 4.44° C | 92% | 1021.6 hPa | 0 mm | - | 33 W/m² | - |
| 1778156804 | 4.44° C | 92% | 1021.9 hPa | 0 mm | - | 27 W/m² | - |
| 1778156500 | 4.44° C | 92% | 1021.6 hPa | 0 mm | - | 24 W/m² | - |
| 1778156196 | 4.44° C | 92% | 1021.7 hPa | 0 mm | - | 16 W/m² | - |
| 1778155892 | 3.89° C | 92% | 1021.7 hPa | 0 mm | - | 13 W/m² | - |
| 1778155588 | 3.89° C | 91% | 1021.5 hPa | 0 mm | - | 10 W/m² | - |
| 1778155284 | 3.89° C | 91% | 1021.7 hPa | 0 mm | - | 6 W/m² | - |
| 1778154981 | 3.89° C | 91% | 1021.6 hPa | 0 mm | - | 4 W/m² | - |
| 1778154672 | 3.33° C | 91% | 1021.7 hPa | 0 mm | - | 2 W/m² | - |
| 1778154368 | 2.78° C | 91% | 1021.7 hPa | 0 mm | - | 1 W/m² | - |
| 1778154065 | 2.78° C | 91% | 1021.6 hPa | 0 mm | - | 0 W/m² | - |
| 1778153762 | 1.67° C | 90% | 1021.7 hPa | 0 mm | - | 0 W/m² | - |
| 1778153459 | 1.11° C | 90% | 1021.8 hPa | 0 mm | - | 0 W/m² | - |
| 1778153157 | 1.67° C | 90% | 1021.6 hPa | 0 mm | - | 0 W/m² | - |
| 1778152853 | 1.67° C | 90% | 1021.5 hPa | 0 mm | - | 0 W/m² | - |
| 1778152550 | 1.67° C | 89% | 1021.5 hPa | 0 mm | - | 0 W/m² | - |
| 1778152247 | 1.67° C | 89% | 1021.7 hPa | 0 mm | - | 0 W/m² | - |
| 1778151943 | 1.67° C | 89% | 1021.6 hPa | 0 mm | - | 0 W/m² | - |
| 1778151640 | 1.67° C | 89% | 1021.7 hPa | 0 mm | - | 0 W/m² | - |
| 1778151337 | 2.22° C | 89% | 1021.7 hPa | 0 mm | - | 0 W/m² | - |
| 1778151033 | 2.22° C | 89% | 1021.8 hPa | 0 mm | - | 0 W/m² | - |
* Rain latest hour (hover to see other rain measurements)
** Current wind speed in m/s (hover to see current wind gust speed)